Tracking 25998 objects as of 20-Aug-2022
HD Live streaming from Space Station
objects crossing your sky now

ARIANE 44L+3 DEB

Track ARIANE 44L+3 DEB now!


NORAD ID: 48421
Int'l Code: 1996-040E
Perigee: 507.0 km
Apogee: 32,190.4 km
Inclination: 6.5 °
Period: 568.0 minutes
Semi major axis: 22719 km
RCS: Unknown
Launch date: July 9, 1996
Source: France (FR)
Launch site: FRENCH GUIANA (FRGUI)

Note: This is SATELLITE DEBRIS
aabbcc
Your satellite tracking list
Your tracking list is empty




NASA's NSSDC Master Catalog

Two Line Element Set (TLE):
1 48421U 96040E   22231.04562166 -.00000012  00000-0  20999-3 0  9994
2 48421   6.4521 167.4243 6972681 210.7430  77.3604  2.53512439 69985
Source of the keplerian elements: AFSPC